Location: Newark
(35.0033°N, 81.0878°W)
Time: 04:22:00
(UTC+00:00)

X-37B - Visible Passes

Search period start: 04 August 2021 00:00
Search period end: 14 August 2021 00:00
Orbit: 383 x 392 km, 45.0° (Epoch: 01 July)

Date Brightness Start Highest point End Pass type
(mag) Time Alt. Az. Time Alt. Az. Time Alt. Az.
04 Aug 2.5 08:25:04 27° N 08:25:04 27° N 08:27:20 10° NE visible
04 Aug 3.3 10:00:03 10° NW 10:01:50 14° N 10:03:36 10° NNE visible
05 Aug 3.2 09:01:28 11° NW 09:03:11 16° N 09:05:14 10° NNE visible
06 Aug 3.4 08:05:35 17° N 08:05:35 17° N 08:07:01 10° NE visible
06 Aug 3.4 09:40:19 10° NNW 09:42:02 14° N 09:43:45 10° NE visible
07 Aug 3.4 08:42:01 11° NNW 08:43:21 14° N 08:45:07 10° NNE visible
08 Aug 4.0 07:46:13 12° NNE 07:46:13 12° NNE 07:46:45 10° NNE visible
08 Aug 3.5 09:20:17 10° NNW 09:22:13 15° N 09:24:09 10° NE visible
09 Aug 3.5 08:22:47 13° NNW 08:23:33 14° N 08:25:15 10° NE visible
09 Aug 2.8 09:58:13 10° NW 10:00:56 25° NNE 10:03:40 10° E visible
10 Aug 3.3 09:00:03 10° NNW 09:02:22 18° NNE 09:04:42 10° ENE visible
11 Aug 3.7 08:04:05 15° NNE 08:04:05 15° NNE 08:05:41 10° NE visible
11 Aug 1.9 09:37:55 10° NW 09:40:58 40° NNE 09:44:00 10° E visible
12 Aug 2.8 08:41:17 20° NNW 08:42:28 25° NNE 08:45:12 10° E visible
12 Aug 0.9 10:16:08 10° WNW 10:19:14 48° SW 10:22:19 10° SE visible
13 Aug 0.6 09:18:50 20° NW 09:20:53 79° NNE 09:24:04 10° ESE visible
